Погода в Садовом

Россия / Астраханская область     48°28′57″N   45°33′33″E
темп.,
°C
ветер,
м/с
пор.,
м/с
влажн.,
%
обл.,
%
осадки,
мм/ч
давл.,
гПа
погр.,
м
24 сентября, пт
пт2401:00+10ссз3587100 0.0 1012112
04:00+10ссв2387100 0.0 101375
07:00+10ссз3689100 0.0 1011173
10:00+11ссв4688100 0.7 1011360
13:00+11сз4488100 3.4 1012385
16:00+12ссз3577100 3.7 1011551
19:00+11с1278100 0.0 101160
22:00+10зюз22795 0.0 101220
25 сентября, сб
сб2501:00+9зюз33765 0.0 101145
04:00+9юз338298 0.0 101132
07:00+9юз3384100 0.0 101142
10:00+12ююз3673100 0.0 1011268
13:00+14юз3671100 0.0 1011612
16:00+13юз4878100 0.1 1012656
19:00+12ююз5984100 0.1 1012417
22:00+11ююз612888 0.2 1013337
26 сентября, вс
вс2601:00+10ююз59906 0.0 1012199
04:00+9зюз49875 0.0 1013182
07:00+9з48945 0.0 1013167
10:00+14з576553 0.0 1013571
13:00+18з7842100 0.1 10122379
16:00+15зюз7958100 0.1 10111279
19:00+12юз6118580 0.8 1009628
22:00+12зюз5109349 1.6 1007352
27 сентября, пн
пн2701:00+11з712865 0.1 1007458
04:00+10зсз7138510 0.1 1008528
07:00+8з5118629 0.0 1009464
10:00+10зсз61078100 0.1 1010783
13:00+14сз886597 0.2 10111293
16:00+16сз565368 0.3 10121544
19:00+13с467229 0.0 1014220
22:00+11сз367913 0.0 1016112
28 сентября, вт
вт2801:00+10ссз36825 0.0 1017114
04:00+9с368620 0.0 1018113
07:00+9ссв489282 0.0 1020255
10:00+11св5676100 0.0 1022761
13:00+13св555499 0.0 10231347
16:00+12ссв455083 0.0 10241421
19:00+12св465099 0.0 1026190
22:00+9св34605 0.0 102751